Winner, SD

12:59 PM CST on December 09, 2019 (GMT -0600)
Winner

Weather History for KICR - June, 2019

Change the Weather History Date:

Friday, June 14, 2019

  Actual Average Record
Temperature  
Mean Temperature 75 °F 68 °F  
Max Temperature 87 °F 80 °F 93 °F (2018)
Min Temperature 62 °F 56 °F 50 °F (2008)
Degree Days  
Heating Degree Days 0 2  
Month to date heating degree days 24 40  
Since 1 June heating degree days 24 40  
Since 1 July heating degree days 7347 6685  
Cooling Degree Days 10 4  
Month to date cooling degree days 56 44  
Year to date cooling degree days 77 74  
Since 1 June cooling degree days 56 44  
Growing Degree Days 25 (Base 50)    
Moisture  
Dew Point 58 °F    
Average Humidity 61    
Maximum Humidity 84    
Minimum Humidity 37    
Precipitation  
Precipitation T in 0.13 in 0.61 in (2016)
Month to date precipitation 0.67 1.90  
Year to date precipitation 10.73 9.97  
Sea Level Pressure  
Sea Level Pressure 29.64 in    
Wind  
Wind Speed 9 mph (SSW)    
Max Wind Speed 20 mph    
Max Gust Speed 28 mph    
Visibility 10 miles    
Events      
T = Trace of Precipitation, MM = Missing Value Source: NWS Daily Summary

Daily Weather History Graph

Daily Weather History Graph

Search for Another Location

Airport or City:

Astronomy

Jun. 14, 2019 Rise Set
Actual Time 5:58 AM CDT 9:21 PM CDT
Civil Twilight 5:22 AM CDT 9:56 PM CDT
Nautical Twilight 4:36 AM CDT 10:43 PM CDT
Astronomical Twilight 3:38 AM CDT 11:41 PM CDT
Moon 6:40 PM CDT (6/14) 4:23 AM CDT (6/14)
Length of Visible Light 16h 34m
Length of Day
15h 23m
Waxing Gibbous, 92% of the Moon is Illuminated
Jun 14
Waxing Gibbous
Jun 17
Full
Jun 25
Last Quarter
Jul 2
New
Jul 9
First Quarter

Hourly Weather History & Observations

Time (CDT) Temp. Heat Index Dew Point Humidity Pressure Visibility Wind Dir Wind Speed Gust Speed Precip Events Conditions
12:53 AM 69.1 °F - 54.0 °F 58% 29.70 in 10.0 mi South 11.5 mph - N/A   Partly Cloudy
1:53 AM 68.0 °F - 55.9 °F 65% 29.69 in 10.0 mi SSW 13.8 mph 25.3 mph N/A   Mostly Cloudy
2:53 AM 66.0 °F - 55.9 °F 70% 29.68 in 10.0 mi SSW 17.3 mph 26.5 mph N/A   Clear
3:53 AM 64.0 °F - 55.9 °F 75% 29.67 in 10.0 mi South 12.7 mph - N/A   Clear
4:53 AM 63.0 °F - 55.9 °F 78% 29.67 in 10.0 mi South 11.5 mph - N/A   Clear
5:53 AM 63.0 °F - 55.9 °F 78% 29.66 in 10.0 mi South 13.8 mph - N/A   Clear
6:53 AM 64.0 °F - 55.9 °F 75% 29.65 in 10.0 mi SSW 10.4 mph - N/A   Clear
7:53 AM 66.0 °F - 57.9 °F 75% 29.64 in 10.0 mi SSW 11.5 mph - N/A   Clear
8:53 AM 69.1 °F - 57.9 °F 68% 29.65 in 10.0 mi SW 10.4 mph - N/A   Clear
9:53 AM 73.9 °F - 59.0 °F 59% 29.64 in 10.0 mi West 10.4 mph - N/A   Clear
10:53 AM 78.1 °F - 61.0 °F 56% 29.61 in 10.0 mi WNW 8.1 mph - N/A   Clear
11:53 AM 80.1 °F 81.1 °F 61.0 °F 52% 29.62 in 10.0 mi NW 10.4 mph - N/A   Clear
12:53 PM 82.9 °F 83.3 °F 61.0 °F 47% 29.61 in 10.0 mi North 9.2 mph - N/A   Clear
1:53 PM 84.0 °F 84.0 °F 60.1 °F 44% 29.61 in 10.0 mi Calm Calm - N/A   Clear
2:53 PM 86.0 °F 84.9 °F 57.0 °F 37% 29.61 in 10.0 mi North 8.1 mph - N/A   Partly Cloudy
3:53 PM 87.1 °F 86.7 °F 60.1 °F 40% 29.60 in 10.0 mi North - - N/A   Clear
4:53 PM 86.0 °F 85.4 °F 59.0 °F 40% 29.61 in 10.0 mi NE 8.1 mph - N/A   Clear
5:53 PM 84.0 °F 83.5 °F 57.9 °F 41% 29.61 in 10.0 mi NE 8.1 mph - N/A   Clear
6:53 PM 80.1 °F 81.2 °F 62.1 °F 54% 29.61 in 10.0 mi NE 4.6 mph - N/A   Mostly Cloudy
7:53 PM 78.1 °F - 61.0 °F 56% 29.62 in 10.0 mi East 3.5 mph - N/A   Clear
8:53 PM 75.0 °F - 61.0 °F 62% 29.60 in 10.0 mi SE 5.8 mph - N/A   Clear